DW9686 Weather Reports


time (UTC)temp
F
wind
direction
speed
knots
gust
knots
rain 1hr
in
rain 24hr
in
rain mn
in
humidity
%
barometer
mb
20260906080038 54 343 3.5 8.7 0.00 0.00 0.00 76 1015.4
20260906074536 54 347 4.3 8.7 0.00 0.00 0.00 76 1015.6
20260906073040 54 350 2.6 7.8 0.00 0.00 0.00 75 1015.6
20260906071537 55 360 2.6 6.1 0.00 0.00 0.00 74 1015.6
20260906070041 55 22 0.9 3.5 0.00 0.00 0.00 75 1015.7
20260906064535 56 23 0.9 3.5 0.00 0.00 0.00 75 1015.7
20260906063047 56 0 0.0 3.5 0.00 0.00 0.00 75 1015.6
20260906061538 56 23 0.9 3.5 0.00 0.00 0.00 76 1015.7
20260906060039 57 23 1.7 3.5 0.00 0.00 0.00 75 1015.7
20260906054541 58 23 1.7 4.3 0.00 0.00 0.00 75 1015.8
20260906053037 59 24 1.7 3.5 0.00 0.00 0.00 74 1015.9
20260906051552 60 24 0.9 3.5 0.00 0.00 0.00 73 1015.9
20260906050049 62 40 3.5 8.7 0.00 0.00 0.00 69 1016.0
20260906044546 63 191 1.7 3.5 0.00 0.00 0.00 68 1015.7
20260906043047 63 189 0.9 3.5 0.00 0.00 0.00 68 1015.7
20260906041536 64 189 1.7 2.6 0.00 0.00 0.00 66 1015.8
20260906040038 64 189 2.6 3.5 0.00 0.00 0.00 65 1015.7
20260906034540 64 188 2.6 3.5 0.00 0.00 0.00 66 1015.7
20260906033037 65 0 0.0 0.0 0.00 0.00 0.00 63 1015.6
20260906031546 66 0 0.0 0.0 0.00 0.00 0.00 61 1015.5
20260906030039 67 0 0.0 0.0 0.00 0.00 0.00 60 1015.2
20260906024542 68 0 0.0 0.0 0.00 0.00 0.00 53 1015.2
20260906023037 68 0 0.0 0.0 0.00 0.00 0.00 57 1015.1
20260906021544 69 0 0.0 0.0 0.00 0.00 0.00 54 1015.2
20260906020042 71 0 0.0 0.0 0.00 0.00 0.00 55 1015.2
20260906014541 71 0 0.0 0.0 0.00 0.00 0.00 49 1015.3
20260906013055 73 0 0.0 0.0 0.00 0.00 0.00 53 1015.2
20260906011547 73 0 0.0 0.0 0.00 0.00 0.00 50 1015.3
20260906010043 73 0 0.0 2.6 0.00 0.00 0.00 47 1015.4
20260906004539 73 184 0.0 3.5 0.00 0.00 0.00 53 1015.3
20260906003041 73 184 0.9 3.5 0.00 0.00 0.00 51 1015.4
20260906001544 72 184 1.7 4.3 0.00 0.00 0.00 50 1015.4
20260906000047 73 184 1.7 4.3 0.00 0.00 0.00 51 1015.4
20260905234539 73 184 1.7 5.2 0.00 0.00 0.00 49 1015.5
20260905233043 73 267 0.9 3.5 0.00 0.00 0.00 47 1015.4
20260905231542 73 267 2.6 5.2 0.00 0.00 0.00 49 1015.5
20260905230042 73 0 0.0 1.7 0.00 0.00 0.00 47 1015.5
20260905224536 73 0 0.0 2.6 0.00 0.00 0.00 50 1015.6
20260905223041 72 267 1.7 6.1 0.00 0.00 0.00 50 1015.7
20260905221540 72 0 0.0 3.5 0.00 0.00 0.00 49 1015.7
20260905220041 72 290 1.7 3.5 0.00 0.00 0.00 49 1016.0
20260905214539 72 294 0.9 7.8 0.00 0.00 0.00 51 1016.1
20260905213040 71 283 1.7 7.8 0.00 0.00 0.00 51 1016.2
20260905211539 71 284 1.7 4.3 0.00 0.00 0.00 53 1016.2
20260905210047 71 284 3.5 8.7 0.00 0.00 0.00 55 1016.3
20260905204537 71 308 2.6 6.1 0.00 0.00 0.00 56 1016.3
20260905203049 70 319 2.6 5.2 0.00 0.00 0.00 56 1016.4
20260905201540 69 327 2.6 7.0 0.00 0.00 0.00 57 1016.4
20260905200037 68 360 0.9 6.1 0.00 0.00 0.00 58 1016.7
20260905194535 68 293 2.6 6.1 0.00 0.00 0.00 60 1016.8
20260905193036 67 330 3.5 7.8 0.00 0.00 0.00 61 1016.8
20260905191542 66 5 2.6 7.8 0.00 0.00 0.00 64 1016.8
20260905190038 65 306 2.6 7.0 0.00 0.00 0.00 64 1017.0
20260905184545 64 348 1.7 7.0 0.00 0.00 0.00 65 1017.2
20260905183033 64 305 2.6 7.0 0.00 0.00 0.00 66 1017.5
20260905181544 64 342 1.7 7.8 0.00 0.00 0.00 67 1017.7
20260905180041 63 333 2.6 9.6 0.00 0.00 0.00 68 1017.8
20260905174537 62 338 3.5 8.7 0.00 0.00 0.00 68 1017.7
20260905173040 61 360 2.6 7.8 0.00 0.00 0.00 70 1017.8
20260905171550 60 352 2.6 5.2 0.00 0.00 0.00 70 1017.9
20260905170043 60 352 1.7 7.8 0.00 0.00 0.00 72 1017.8
20260905164544 59 340 3.5 8.7 0.00 0.00 0.00 72 1017.8
20260905163052 58 352 5.2 9.6 0.00 0.00 0.00 74 1017.5
20260905161542 57 340 3.5 9.6 0.00 0.00 0.00 76 1017.3
20260905160038 57 18 5.2 8.7 0.00 0.00 0.00 77 1017.3
20260905154549 56 352 4.3 9.6 0.00 0.00 0.00 80 1017.4
20260905153038 55 318 1.7 7.0 0.00 0.00 0.00 80 1017.6
20260905151540 54 323 1.7 8.7 0.00 0.00 0.00 81 1017.5
20260905150045 54 348 3.5 9.6 0.00 0.00 0.00 82 1017.2
20260905144540 53 338 3.5 7.0 0.00 0.00 0.00 84 1017.4
20260905143042 53 0 0.0 1.7 0.00 0.00 0.00 84 1017.8
20260905141541 53 0 0.9 2.6 0.00 0.00 0.00 84 1017.6
20260905140038 53 0 0.9 3.5 0.00 0.00 0.00 82 1017.5
20260905134543 53 337 2.6 7.0 0.00 0.00 0.00 81 1017.1
20260905133038 53 333 3.5 7.0 0.00 0.00 0.00 83 1016.6
20260905131540 52 331 2.6 4.3 0.00 0.00 0.00 84 1016.6
20260905130040 52 331 1.7 3.5 0.00 0.00 0.00 83 1016.5
20260905124537 52 331 2.6 5.2 0.00 0.00 0.00 84 1016.4
20260905123043 52 331 0.9 3.5 0.00 0.00 0.00 83 1016.5
20260905121539 53 331 2.6 4.3 0.00 0.00 0.00 82 1016.3
20260905120050 53 331 2.6 4.3 0.00 0.00 0.00 82 1016.2
20260905114538 54 331 2.6 4.3 0.00 0.00 0.00 81 1016.2
20260905113037 54 331 2.6 5.2 0.00 0.00 0.00 80 1016.2
20260905111545 54 331 2.6 4.3 0.00 0.00 0.00 80 1016.0
20260905110108 54 331 1.7 4.3 0.00 0.00 0.00 79 1016.0
20260905104551 55 331 0.9 4.3 0.00 0.00 0.00 77 1016.0
20260905103039 55 328 3.5 7.8 0.00 0.00 0.00 78 1015.8
20260905101538 55 327 1.7 3.5 0.00 0.00 0.00 79 1015.7
20260905100043 55 327 2.6 7.0 0.00 0.00 0.00 79 1015.7
20260905094640 54 322 3.5 7.8 0.00 0.00 0.00 80 1015.7
20260905093037 54 313 1.7 4.3 0.00 0.00 0.00 80 1015.8
20260905091539 54 313 1.7 4.3 0.00 0.00 0.00 79 1015.7
20260905090041 55 313 0.9 3.5 0.00 0.00 0.00 76 1015.7
20260905084553 56 313 2.6 7.0 0.00 0.00 0.00 75 1015.5
20260905083035 55 311 2.6 7.0 0.00 0.00 0.00 76 1015.3
20260905081542 56 311 4.3 8.7 0.00 0.00 0.00 75 1015.1